[Iaude] MPEC G64: 2024 FJ5 [a=1.27,e=0.19,i=5.6,H=23.5]

mpec at cfa.harvard.edu mpec at cfa.harvard.edu
Fri Apr 5 09:31:33 EDT 2024


M.P.E.C. 2024-G64                                 Issued 2024 April 5, 13:30 UT

     The Minor Planet Electronic Circulars contain information on unusual
         minor planets, routine data on comets and natural satellites,
         and occasional editorial announcements.  They are published
    on behalf of Division F of the International Astronomical Union by the
          Minor Planet Center, Smithsonian Astrophysical Observatory,
                          Cambridge, MA 02138, U.S.A.
			  
             Prepared using the Tamkin Foundation Computer Network

                              MPC at CFA.HARVARD.EDU
            URL https://www.minorplanetcenter.net/    ISSN 1523-6714

                                    2024 FJ5                                    


Observations:
     K24F05J* C2024 03 31.36170112 33 06.096+15 12 59.90         21.75wXEG064F52
     K24F05J  C2024 03 31.38665012 33 02.738+15 12 39.59         21.84wXEG064F52
     K24F05J  C2024 03 31.39921212 33 01.008+15 12 29.26         21.44wXEG064F52
     K24F05J  C2024 03 31.53401512 32 42.844+15 10 35.98         21.96GVEG064F52
     K24F05J  C2024 03 31.53466512 32 42.775+15 10 35.20         23.14GVEG064F52
     K24F05J 7C2024 04 04.11064812 25 49.032+14 18 37.18         21.9 GVEG064Z84
     K24F05J 7C2024 04 04.13429012 25 46.273+14 18 15.65         21.0 GVEG064Z84
     K24F05J KC2024 04 04.26614712 25 33.535+14 16 21.00         22.08GVEG064I52
     K24F05J KC2024 04 04.27854912 25 32.070+14 16 09.98         21.53GVEG064I52
     K24F05J KC2024 04 04.28474612 25 31.300+14 16 03.76         21.66GVEG064I52

Observer details:
F52 Pan-STARRS 2, Haleakala.  Observers J. Herman, T. Lowe, P. Minguez, A.
    Schultz, I. Smith.  Measurers K. Chambers, T. de Boer, J. Fairlamb, H.
    Gao, M. Huber, C.-C. Lin, E. Magnier, Y. Ramanjooloo, R. Wainscoat, R.
    Weryk.  1.8-m Ritchey-Chretien + CCD.
I52 Steward Observatory, Mt. Lemmon Station.  Observer R. A. Kowalski.
    Measurers T. Beuden, V. F. Carvajal, D. Fay, J. B. Fazekas, D. C. Fuls, A.
    R. Gibbs, A. D. Grauer, H. Groeller, J. K. Hogan, R. A. Kowalski, S. M.
    Larson, G. J. Leonard, D. Rankin, R. L. Seaman, F. C. Shelly, K. W.
    Wierzchos.  1.0-m prime focus + CCD.
Z84 Calar Alto-Schmidt.  Observers F. Ocana, R. Kresken, M. Micheli, L.
    Conversi.  Measurers F. Ocana, M. Micheli.  0.8-m f/3 Schmidt + CCD.

Orbital elements:
2024 FJ5                                                 Earth MOID = 0.0621 AU
Epoch 2024 Mar. 31.0 TT = JDT 2460400.5                 MPC                     
M  75.57026              (2000.0)            P               Q                  
n   0.68792609     Peri.   41.35692     -0.01002993     -0.99718689             
a   1.2708907      Node    49.35575     +0.88978400     -0.04279612             
e   0.1928259      Incl.    5.61809     +0.45627167     +0.06153700             
P   1.43           H   23.51          G   0.15           U   9                  
Residuals in seconds of arc
240331 F52  0.2+  0.0     240331 F52  0.1+  0.1-    240404 I52  0.2+  0.3+
240331 F52  0.3+  0.1-    240404 Z84  0.1+  0.3-    240404 I52  0.2-  0.3-
240331 F52  0.1-  0.1-    240404 Z84  0.0   0.2+
240331 F52  0.2-  0.1+    240404 I52  0.1-  0.1+

Ephemeris:
2024 FJ5                 a,e,i = 1.27, 0.19, 6                   q = 1.0258
Date    TT    R. A. (2000) Decl.     Delta      r    Elong.  Phase     V
2024 03 06    13 30 24.1 +18 29 33   0.2280  1.1817   142.8    30.5    22.0
...
2024 03 21    12 56 28.9 +17 13 12   0.2448  1.2265   158.0    17.7    21.8
...
2024 03 29    12 38 03.3 +15 44 40   0.2637  1.2504   160.8    15.2    21.9
...
2024 04 04    12 26 02.4 +14 20 32   0.2829  1.2682   158.9    16.5    22.2
2024 04 05    12 24 14.7 +14 05 22   0.2866  1.2711   158.3    16.9    22.2
2024 04 06    12 22 31.1 +13 49 57   0.2903  1.2741   157.7    17.4    22.3
...
2024 04 12    12 13 37.6 +12 12 43   0.3154  1.2915   153.0    20.6    22.6
...
2024 04 20    12 05 51.7 +09 55 37   0.3552  1.3143   146.0    25.3    23.0
...
2024 05 05    12 02 35.0 +05 36 49   0.4463  1.3548   133.5    32.7    23.8

A. U. Tomatic                (C) Copyright 2024 MPC           M.P.E.C. 2024-G64





More information about the Iaude mailing list